Tracking 25612 objects as of 20-May-2022
HD Live streaming from Space Station
objects crossing your sky now

COSMOS 2251 DEB

Track COSMOS 2251 DEB now!
10-day predictions


NORAD ID: 34978
Int'l Code: 1993-036AFH
Perigee: 601.7 km
Apogee: 656.8 km
Inclination: 74.0 °
Period: 97.1 minutes
Semi major axis: 7000 km
RCS: 0.0179 m2 (small)
Launch date: June 16, 1993
Source: Commonwealth of Independent States (former USSR) (CIS)
Launch site: PLESETSK MISSILE AND SPACE COMPLEX (PKMTR)

Note: This is SATELLITE DEBRIS
aabbcc
Your satellite tracking list
Your tracking list is empty




NASA's NSSDC Master Catalog

Two Line Element Set (TLE):
1 34978U 93036AFH 22139.21205914  .00021901  00000-0  26991-2 0  9995
2 34978  74.0253  57.9817 0039356 162.7004 197.5526 14.82300768697395
Source of the keplerian elements: AFSPC